Date String (YYYY-MM-DD hh:mm:ss) UTC,Instrument flags,absolute air pressure of the measurement (hPa),sample flow rate (lpm),inlet stack bypass flow (lpm),air temperature of the measurement (°C),ambient temperature measured by the external sensor (°C),aerosol sample conditioner tube jacket temperature (°C),OPC LED temperature (°C),internal box temperature (°C),relative humidity of the measurement (%),span deviation,mass concentration of particles derived from Lorenz-Mie calculation of OPC scattering (μg/m³),mass concentration of particles derived from Lorenz-Mie calculation of OPC scattering (μg/m³),mass concentration of particles derived from Lorenz-Mie calculation of OPC scattering (μg/m³)
DateTimeUTC,F1_M11,P_M11,Q1_M11,Q2_M11,T1_M11,T2_M11,T3_M11,T4_M11,T5_M11,U1_M11,ZSPAN_M11,X0_M11,X2_M11,X1_M11
2023-12-19 09:00:00,SystemResetWarning,0824.7,5.00,000.00,022.6,021.6,000.0,030.8,023.8,5.2,0000.0,0003.75,0000.58,0000.33
2023-12-19 09:01:00,SystemResetWarning,0824.7,5.01,000.00,022.6,021.6,000.0,030.8,023.8,5.3,0000.0,0003.29,0000.59,0000.33
2023-12-19 09:02:00,SystemResetWarning,0824.7,4.99,000.00,022.6,021.6,000.0,030.8,023.8,5.5,0000.0,0002.43,0000.62,0000.34
2023-12-19 09:03:00,SystemResetWarning,0824.6,4.98,000.00,022.6,021.6,000.0,030.8,023.9,5.5,0000.0,0001.69,0000.66,0000.35
2023-12-19 09:04:00,SystemResetWarning,0824.7,5.01,000.00,022.6,021.5,000.0,030.8,023.9,5.5,0000.0,0002.64,0000.64,0000.35
2023-12-19 09:05:00,SystemResetWarning,0824.7,5.01,000.00,022.6,021.5,000.0,030.8,023.8,5.5,0000.0,0002.79,0000.61,0000.35
2023-12-19 09:06:00,SystemResetWarning,0824.7,5.00,000.00,022.6,021.5,000.0,030.8,023.8,5.6,0000.0,0003.58,0000.59,0000.35
2023-12-19 09:07:00,SystemResetWarning,0824.7,5.00,000.00,022.6,021.5,000.0,030.8,023.8,5.6,0000.0,0003.68,0000.59,0000.36
2023-12-19 09:08:00,SystemResetWarning,0824.7,4.99,000.00,022.6,021.5,000.0,030.8,023.8,5.6,0000.0,0003.59,0000.56,0000.35
2023-12-19 09:09:00,SystemResetWarning,0824.7,5.00,000.00,022.5,021.5,000.0,030.8,023.8,5.6,0000.0,0003.57,0000.58,0000.35
2023-12-19 09:10:00,SystemResetWarning,0824.6,5.00,000.00,022.5,021.5,000.0,030.8,023.8,5.6,0000.0,0003.51,0000.57,0000.35
2023-12-19 09:11:00,SystemResetWarning,0824.6,5.00,000.00,022.5,021.5,000.0,030.8,023.8,5.5,0000.0,0003.41,0000.55,0000.35
2023-12-19 09:12:00,SystemResetWarning,0824.6,5.01,000.00,022.5,021.5,000.0,030.8,023.9,5.5,0000.0,0003.26,0000.55,0000.35
2023-12-19 09:13:00,SystemResetWarning,0824.7,5.01,000.00,022.5,021.5,000.0,030.8,023.9,5.6,0000.0,0003.13,0000.53,0000.35
2023-12-19 09:14:00,SystemResetWarning,0824.7,5.00,000.00,022.5,021.5,000.0,030.8,023.8,5.5,0000.0,0002.90,0000.47,0000.35
2023-12-19 09:15:00,SystemResetWarning,0824.7,5.00,000.00,022.5,021.5,000.0,030.8,023.8,5.6,0000.0,0001.92,0000.49,0000.35
2023-12-19 09:16:00,SystemResetWarning,0824.7,4.99,000.00,022.5,021.5,000.0,030.8,023.7,5.6,0000.0,0001.83,0000.53,0000.36
2023-12-19 09:17:00,SystemResetWarning,0824.6,4.99,000.00,022.5,021.5,000.0,030.8,023.7,5.6,0000.0,0001.19,0000.55,0000.36
2023-12-19 09:18:00,SystemResetWarning,0824.4,4.99,000.00,022.5,021.5,000.0,030.8,023.8,5.5,0000.0,0001.11,0000.55,0000.36
2023-12-19 09:19:00,SystemResetWarning,0824.6,5.01,000.00,022.5,021.5,000.0,030.8,023.8,5.3,0000.0,0001.09,0000.55,0000.37
2023-12-19 09:20:00,SystemResetWarning,0824.7,5.01,000.00,022.5,021.5,000.0,030.8,023.8,5.5,0000.0,0001.07,0000.53,0000.37
2023-12-19 09:21:00,SystemResetWarning,0824.7,5.01,000.00,022.5,021.5,000.0,030.8,023.8,5.5,0000.0,0001.05,0000.53,0000.37
2023-12-19 09:22:00,SystemResetWarning,0824.7,5.00,000.00,022.5,021.5,000.0,030.8,023.8,5.5,0000.0,0001.02,0000.54,0000.37
2023-12-19 09:23:00,SystemResetWarning,0824.8,5.00,000.00,022.5,021.4,000.0,030.8,023.7,5.5,0000.0,0001.17,0000.56,0000.38
2023-12-19 09:24:00,SystemResetWarning,0824.8,4.99,000.00,022.5,021.4,000.0,030.8,023.7,5.4,0000.0,0001.25,0000.58,0000.38
2023-12-19 09:25:00,SystemResetWarning,0824.8,5.00,000.00,022.5,021.4,000.0,030.8,023.7,5.5,0000.0,0001.46,0000.62,0000.38
2023-12-19 09:26:00,SystemResetWarning,0824.8,5.00,000.00,022.5,021.4,000.0,030.8,023.7,5.5,0000.0,0001.51,0000.62,0000.39
2023-12-19 09:27:00,SystemResetWarning,0824.7,5.00,000.00,022.5,021.4,000.0,030.8,023.8,5.4,0000.0,0001.38,0000.58,0000.39
2023-12-19 09:28:00,SystemResetWarning,0824.7,5.00,000.00,022.5,021.4,000.0,030.8,023.7,5.4,0000.0,0001.30,0000.59,0000.39
2023-12-19 09:29:00,SystemResetWarning,0824.7,5.00,000.00,022.5,021.4,000.0,030.8,023.8,5.4,0000.0,0001.24,0000.58,0000.40
2023-12-19 09:30:00,SystemResetWarning,0824.7,5.00,000.00,022.5,021.4,000.0,030.8,023.7,5.4,0000.0,0001.28,0000.59,0000.39
2023-12-19 09:31:00,SystemResetWarning,0824.6,5.00,000.00,022.5,021.4,000.0,030.8,023.7,5.5,0000.0,0001.26,0000.59,0000.39
2023-12-19 09:32:00,SystemResetWarning,0824.5,4.99,000.00,022.4,021.4,000.0,030.8,023.7,5.5,0000.0,0001.25,0000.59,0000.39
2023-12-19 09:33:00,SystemResetWarning,0824.2,4.99,000.00,022.4,021.4,000.0,030.7,023.7,5.4,0000.0,0001.41,0000.61,0000.40
2023-12-19 09:34:00,SystemResetWarning,0824.3,4.99,000.00,022.4,021.4,000.0,030.7,023.7,5.5,0000.0,0001.46,0000.63,0000.40
2023-12-19 09:35:00,SystemResetWarning,0824.3,5.01,000.00,022.4,021.4,000.0,030.7,023.6,5.5,0000.0,0001.55,0000.67,0000.40
2023-12-19 09:36:00,SystemResetWarning,0824.3,5.01,000.00,022.4,021.3,000.0,030.7,023.7,5.5,0000.0,0001.39,0000.65,0000.40
2023-12-19 09:37:00,SystemResetWarning,0824.2,5.01,000.00,022.4,021.3,000.0,030.7,023.6,5.6,0000.0,0001.35,0000.64,0000.40
2023-12-19 09:38:00,SystemResetWarning,0824.4,4.99,000.00,022.4,021.3,000.0,030.7,023.7,5.5,0000.0,0002.82,0000.66,0000.40
2023-12-19 09:39:00,SystemResetWarning,0824.4,5.00,000.00,022.4,021.3,000.0,030.7,023.7,5.4,0000.0,0003.68,0000.64,0000.40
2023-12-19 09:40:00,SystemResetWarning,0824.6,5.00,000.00,022.4,021.3,000.0,030.7,023.6,5.5,0000.0,0003.67,0000.63,0000.40
2023-12-19 09:41:00,SystemResetWarning,0824.6,5.00,000.00,022.4,021.3,000.0,030.7,023.6,5.6,0000.0,0004.27,0000.64,0000.40
2023-12-19 09:42:00,SystemResetWarning,0824.5,4.99,000.00,022.4,021.3,000.0,030.7,023.6,5.5,0000.0,0004.78,0000.66,0000.41
2023-12-19 09:43:00,SystemResetWarning,0824.5,5.00,000.00,022.4,021.3,000.0,030.7,023.7,5.5,0000.0,0004.85,0000.67,0000.42
2023-12-19 09:44:00,SystemResetWarning,0824.6,5.00,000.00,022.4,021.3,000.0,030.7,023.7,5.4,0000.0,0005.88,0000.68,0000.42
2023-12-19 09:45:00,SystemResetWarning,0824.6,5.00,000.00,022.4,021.3,000.0,030.7,023.7,5.4,0000.0,0007.00,0000.67,0000.44
2023-12-19 09:46:00,SystemResetWarning,0824.7,5.00,000.00,022.4,021.3,000.0,030.7,023.7,5.5,0000.0,0006.85,0000.62,0000.44
2023-12-19 09:47:00,SystemResetWarning,0824.7,5.00,000.00,022.4,021.3,000.0,030.7,023.7,5.5,0000.0,0006.87,0000.61,0000.44
2023-12-19 09:48:00,SystemResetWarning,0824.7,5.00,000.00,022.4,021.3,000.0,030.7,023.7,5.7,0000.0,0006.92,0000.64,0000.45
2023-12-19 09:49:00,SystemResetWarning,0824.7,5.00,000.00,022.4,021.3,000.0,030.7,023.6,5.7,0000.0,0005.91,0000.65,0000.46
2023-12-19 09:50:00,SystemResetWarning,0824.8,5.01,000.00,022.4,021.4,000.0,030.7,023.6,5.7,0000.0,0004.85,0000.65,0000.47
2023-12-19 09:51:00,SystemResetWarning,0824.8,5.01,000.00,022.4,021.4,000.0,030.7,023.6,5.7,0000.0,0004.95,0000.69,0000.49
2023-12-19 09:52:00,SystemResetWarning,0824.6,5.00,000.00,022.4,021.4,000.0,030.7,023.7,5.8,0000.0,0004.62,0000.72,0000.50
2023-12-19 09:53:00,SystemResetWarning,0824.6,5.00,000.00,022.4,021.4,000.0,030.7,023.7,5.7,0000.0,0004.17,0000.73,0000.51
2023-12-19 09:54:00,SystemResetWarning,0824.5,5.00,000.00,022.4,021.4,000.0,030.7,023.7,5.6,0000.0,0004.19,0000.74,0000.51
2023-12-19 09:55:00,SystemResetWarning,0824.6,4.99,000.00,022.4,021.4,000.0,030.7,023.7,5.6,0000.0,0003.11,0000.72,0000.52
2023-12-19 09:56:00,SystemResetWarning,0824.6,5.00,000.00,022.4,021.4,000.0,030.7,023.7,5.7,0000.0,0001.78,0000.70,0000.51
2023-12-19 09:57:00,SystemResetWarning,0824.6,5.00,000.00,022.4,021.4,000.0,030.7,023.6,5.8,0000.0,0001.74,0000.71,0000.51
2023-12-19 09:58:00,SystemResetWarning,0824.5,4.99,000.00,022.4,021.4,000.0,030.7,023.7,5.7,0000.0,0001.71,0000.72,0000.52
2023-12-19 09:59:00,SystemResetWarning,0824.5,5.00,000.00,022.4,021.4,000.0,030.7,023.7,5.6,0000.0,0001.66,0000.70,0000.52
